This demonstration page uses our WeatherBlox Daily Observations layout. Learn more.

Left ArrowRight Arrow

53.62937, 11.41316

Hourly Observations for June 27, 2019

Temp ( °F °C ) Dew Point ( °F °C ) Humidity (%) Winds ( mph kmh ) Pressure ( in mb ) Visibility ( mi km ) Precip ( " mm )
6:50 am 06:50 Mostly Sunny 55 13 48 9 77 77 W 6 9 30.27 1025 7 11 N/A
7:20 am 07:20 Mostly Sunny 55 13 48 9 77 77 W 9 15 30.27 1025 7 11 N/A
7:50 am 07:50 Mostly Cloudy 57 14 48 9 72 72 W 8 13 30.27 1025 30 48 N/A
8:20 am 08:20 Partly Cloudy 59 15 50 10 72 72 W 9 15 30.27 1025 30 48 N/A
8:50 am 08:50 Partly Cloudy 59 15 48 9 68 68 WNW 7 11 30.27 1025 30 48 N/A
9:20 am 09:20 Partly Cloudy 61 16 50 10 68 68 W 10 17 30.27 1025 30 48 N/A
9:50 am 09:50 Partly Cloudy 63 17 52 11 68 68 W 10 17 30.27 1025 30 48 N/A
10:20 am 10:20 Mostly Cloudy 63 17 50 10 64 64 W 9 15 30.27 1025 30 48 N/A
10:50 am 10:50 Mostly Cloudy 63 17 50 10 64 64 VRB 8 13 30.27 1025 30 48 N/A
11:20 am 11:20 Mostly Cloudy 63 17 52 11 68 68 WNW 8 13 30.30 1026 30 48 N/A
11:50 am 11:50 Mostly Cloudy 63 17 52 11 68 68 W 9 15 30.27 1025 30 48 N/A
12:20 pm 12:20 Mostly Cloudy 64 18 52 11 64 64 W 9 15 30.30 1026 30 48 N/A
12:50 pm 12:50 Mostly Cloudy 64 18 52 11 64 64 W 10 17 30.27 1025 30 48 N/A
1:20 pm 13:20 Mostly Cloudy 64 18 52 11 64 64 W 8 13 30.27 1025 30 48 N/A
1:50 pm 13:50 Mostly Cloudy 64 18 52 11 64 64 W 9 15 30.27 1025 30 48 N/A
2:20 pm 14:20 Mostly Cloudy 66 19 52 11 60 60 W 9 15 30.27 1025 30 48 N/A
2:50 pm 14:50 Mostly Cloudy 66 19 52 11 60 60 W 9 15 30.27 1025 30 48 N/A
3:20 pm 15:20 Partly Cloudy 64 18 52 11 64 64 W 9 15 30.27 1025 30 48 N/A
3:50 pm 15:50 Partly Cloudy 64 18 50 10 60 60 W 13 20 30.27 1025 30 48 N/A
4:20 pm 16:20 Partly Cloudy 66 19 52 11 60 60 W 10 17 30.24 1024 30 48 N/A
4:50 pm 16:50 Partly Cloudy 66 19 52 11 60 60 W 12 19 30.24 1024 30 48 N/A
5:20 pm 17:20 Partly Cloudy 64 18 52 11 64 64 W 10 17 30.27 1025 30 48 N/A
5:50 pm 17:50 Partly Cloudy 64 18 41 5 43 43 W 8 13 30.27 1025 30 48 N/A
6:20 pm 18:20 Partly Cloudy 66 19 52 11 60 60 W 10 17 30.24 1024 30 48 N/A
6:50 pm 18:50 Partly Cloudy 64 18 52 11 64 64 W 9 15 30.24 1024 30 48 N/A
7:20 pm 19:20 Partly Cloudy 63 17 50 10 64 64 W 9 15 30.27 1025 30 48 N/A
7:50 pm 19:50 Mostly Sunny 63 17 52 11 68 68 W 7 11 30.24 1024 30 48 N/A
8:20 pm 20:20 Partly Cloudy 63 17 50 10 64 64 W 8 13 30.27 1025 30 48 N/A
8:50 pm 20:50 Partly Cloudy 61 16 52 11 72 72 W 6 9 30.27 1025 30 48 N/A

Powered by AerisWeather